Location: Guferjoch
(46.7462°N, 8.4506°E)
Time: 23:54:08
(UTC+00:00)

Cosmos 1602 - Pass Details

Date: 14 July 2020
Orbit: 515 x 533 km, 82.5° (Epoch: 14 August)

Event Time Altitude Azimuth Distance (km) Brightness Sun altitude
Exits shadow 00:17:21 43° 118° (ESE) 737 4.3 -20.9°
Maximum altitude 00:17:50 46° 94° (E) 707 4.3 -20.8°
Drops below altitude 10° 00:21:33 10° 21° (NNE) 1,762 7.6 -20.7°
Sets 00:23:45 0° 15° (NNE) 2,658 8.9 -20.6°
